This is the latest recevied weather packets stored in our database for station/object N5JXS. If no packets are shown the sender has not sent any weather packets the latest 1 day(s).
| Time | Temp. | Humidity | Pressure | Rain* | Wind** | Luminosity | Snow |
|---|---|---|---|---|---|---|---|
| 1778009894 | 1.11° C | 97% | 1014.5 hPa | 1.27 mm | 0 m/s | 75 W/m² | - |
| 1778009593 | 1.11° C | 97% | 1014.8 hPa | 1.27 mm | 0 m/s | 78 W/m² | - |
| 1778009290 | 1.11° C | 97% | 1014.8 hPa | 1.78 mm | 0 m/s | 81 W/m² | - |
| 1778008988 | 1.11° C | 97% | 1015 hPa | 1.78 mm | 0.45 m/s, 24° | 99 W/m² | - |
| 1778008686 | 0.56° C | 97% | 1014.9 hPa | 0 mm | 0.45 m/s, 346° | 81 W/m² | - |
| 1778008384 | 0.56° C | 97% | 1014.8 hPa | 1.27 mm | 0.45 m/s, 16° | 81 W/m² | - |
| 1778008080 | 1.11° C | 97% | 1015 hPa | 1.27 mm | 0.45 m/s, 16° | 65 W/m² | - |
| 1778007775 | 0.56° C | 97% | 1015 hPa | 0 mm | 0 m/s | 76 W/m² | - |
| 1778007472 | 0.56° C | 97% | 1014.8 hPa | 0 mm | 0 m/s | 56 W/m² | - |
| 1778007168 | 0.56° C | 97% | 1014.9 hPa | 0 mm | 0 m/s | 57 W/m² | - |
| 1778006864 | 0.56° C | 97% | 1015 hPa | 0 mm | 0 m/s | 63 W/m² | - |
| 1778006562 | 0.56° C | 97% | 1015 hPa | 0 mm | 0 m/s | 68 W/m² | - |
| 1778006258 | 0.56° C | 97% | 1015 hPa | 0 mm | 0 m/s | 77 W/m² | - |
| 1778005956 | 0.56° C | 97% | 1015.3 hPa | 0 mm | 0 m/s | 78 W/m² | - |
| 1778005652 | 0.56° C | 97% | 1015.3 hPa | 1.78 mm | 0 m/s | 71 W/m² | - |
| 1778005349 | 0.56° C | 97% | 1015.3 hPa | 1.78 mm | 0 m/s | 65 W/m² | - |
| 1778005045 | 0.56° C | 97% | 1015.3 hPa | 0 mm | 0 m/s | 72 W/m² | - |
| 1778004743 | 0.56° C | 97% | 1015.5 hPa | 0 mm | 0 m/s | 71 W/m² | - |
| 1778004440 | 0.56° C | 97% | 1015.4 hPa | 0 mm | 0.45 m/s, 41° | 74 W/m² | - |
| 1778004136 | 0.56° C | 97% | 1015.6 hPa | 0 mm | 0 m/s | 75 W/m² | - |
| 1778003833 | 0.56° C | 97% | 1015.6 hPa | 1.27 mm | 0 m/s | 65 W/m² | - |
| 1778003529 | 0.56° C | 97% | 1015.5 hPa | 1.27 mm | 0 m/s | 69 W/m² | - |
| 1778003226 | 0.56° C | 97% | 1015.5 hPa | 0 mm | 0 m/s | 75 W/m² | - |
| 1778002922 | 0.56° C | 97% | 1015.6 hPa | 0 mm | 0.45 m/s, 89° | 81 W/m² | - |
| 1778002619 | 0.56° C | 97% | 1015.8 hPa | 1.78 mm | 0.45 m/s, 57° | 64 W/m² | - |
* Rain latest hour (hover to see other rain measurements)
** Current wind speed in m/s (hover to see current wind gust speed)